sat.trackr.live / text

‹ back to catalog

JAM-E JAM 1

NORAD 67757 · 2026-028B

PAYLOAD ACTIVE UNKNOWN

§ Identity

Operator
Country
IRAN
Launch date
2026-02-12
Launch site
TYMSC
Launch vehicle
Mass (kg)
RCS (m²)

Purposes: comms

External: N2YO · Heavens-Above · Gunter

§ Orbital elements

Epoch: 2026-09-19T22:15:50.865984Z

Period
1,436.12 min
Inclination
0.1525°
Eccentricity
0.0000471
Mean motion
1.00270046 rev/d
Perigee alt
35,785.1 km
Apogee alt
35,789.1 km
Semi-major
42,165.2 km
B*
0.0000e+0
RAAN
4.5374°
Arg perigee
49.4487°
Mean anomaly
312.6980°
Rev number
206

§ Raw data

JAM-E JAM 11 67757U 26028B   26262.92767206  .00000152  00000+0  00000+0 0  99932 67757   0.1525   4.5374 0000471  49.4487 312.6980  1.00270046  2065

JSON: /api/v1/satellites/67757 · /tle

For live sub-satellite position, see the globe view (requires WebGL).

§ Visibility from observer

Set your observer location to see the next 7 days of passes ≥ 10°. The values pass through the URL so the page stays shareable.

No JS? Fill the form by hand. The geolocation button needs JavaScript.